Location: Rounton
(54.4000°N, 1.3500°W)
Time: 21:28:01
(UTC+00:00)

Vanguard 1 - Pass Details

Date: 01 December 2021
Orbit: 652 x 3830 km, 34.2° (Epoch: 16 January)

Event Time Altitude Azimuth Distance (km) Brightness Sun altitude
Rises 21:32:45 0° 176° (S) 7,330 - -48.0°
Reaches altitude 10° 21:41:30 10° 156° (SSE) 6,735 - -49.0°
Maximum altitude 21:51:14 15° 130° (SE) 6,521 - -50.1°
Drops below altitude 10° 22:00:59 10° 105° (ESE) 6,822 - -51.1°
Sets 22:09:45 0° 86° (E) 7,496 - -52.0°
